| time (UTC) | temp C | wind direction | speed KPH | gust KPH | rain 1hr cm | rain 24hr cm | rain mn cm | humidity % | barometer mb |
| 20260505062230 | 32 | 67 | 20.9 | 46.7 | 0.05 | 0.00 | 0.10 | 80 | 1009.5 |
| 20260505061230 | 33 | 225 | 11.3 | 25.7 | 0.05 | 0.00 | 0.10 | 78 | 1009.9 |
| 20260505060228 | 35 | 202 | 4.8 | 11.3 | 0.05 | 0.00 | 0.10 | 78 | 1010.0 |
| 20260505055225 | 35 | 112 | 4.8 | 12.9 | 0.05 | 0.00 | 0.10 | 79 | 1010.0 |
| 20260505054224 | 35 | 0 | 11.3 | 25.7 | 0.05 | 0.00 | 0.10 | 80 | 1010.3 |
| 20260505053221 | 35 | 67 | 1.6 | 3.2 | 0.05 | 0.00 | 0.10 | 81 | 1010.4 |
| 20260505052224 | 34 | 112 | 1.6 | 3.2 | 0.05 | 0.00 | 0.10 | 82 | 1010.6 |
| 20260505051219 | 33 | 0 | 1.6 | 4.8 | 0.05 | 0.00 | 0.10 | 80 | 1010.8 |
| 20260505050219 | 34 | 202 | 0.0 | 3.2 | 0.05 | 0.00 | 0.10 | 79 | 1010.9 |
| 20260505041209 | 32 | 67 | 6.4 | 14.5 | 0.05 | 0.00 | 0.10 | 76 | 1011.6 |
| 20260505040207 | 32 | 0 | 19.3 | 43.5 | 0.05 | 0.00 | 0.10 | 78 | 1011.7 |
| 20260505035205 | 32 | 112 | 0.0 | 0.0 | 0.05 | 0.00 | 0.10 | 80 | 1011.7 |
| 20260505034202 | 32 | 270 | 8.0 | 19.3 | 0.05 | 0.00 | 0.10 | 84 | 1011.8 |
| 20260505033200 | 31 | 22 | 11.3 | 27.4 | 0.05 | 0.00 | 0.10 | 84 | 1011.8 |
| 20260505032200 | 31 | 225 | 0.0 | 0.0 | 0.05 | 0.00 | 0.10 | 85 | 1011.9 |
| 20260505031157 | 31 | 112 | 0.0 | 0.0 | 0.05 | 0.00 | 0.10 | 82 | 1012.1 |
| 20260505030155 | 30 | 67 | 0.0 | 0.0 | 0.05 | 0.00 | 0.10 | 83 | 1012.2 |
| 20260505025154 | 31 | 225 | 0.0 | 0.0 | 0.05 | 0.00 | 0.10 | 84 | 1012.2 |
| 20260505024152 | 30 | 112 | 0.0 | 1.6 | 0.05 | 0.00 | 0.10 | 83 | 1012.0 |
| 20260505023151 | 30 | 0 | 1.6 | 4.8 | 0.05 | 0.00 | 0.10 | 82 | 1012.0 |
| 20260505022149 | 30 | 90 | 8.0 | 19.3 | 0.05 | 0.00 | 0.10 | 87 | 1012.0 |
| 20260505021142 | 28 | 0 | 3.2 | 8.0 | 0.05 | 0.00 | 0.10 | 87 | 1011.9 |
| 20260505020139 | 28 | 0 | 40.2 | 91.7 | 0.05 | 0.00 | 0.10 | 88 | 1012.0 |
| 20260505015138 | 28 | 112 | 16.1 | 37.0 | 0.05 | 0.00 | 0.10 | 89 | 1012.0 |
| 20260505014136 | 27 | 112 | 41.8 | 96.6 | 0.05 | 0.00 | 0.10 | 88 | 1011.9 |
| 20260505013135 | 27 | 112 | 3.2 | 8.0 | 0.05 | 0.00 | 0.10 | 88 | 1011.8 |
| 20260505012140 | 27 | 112 | 0.0 | 1.6 | 0.05 | 0.00 | 0.10 | 88 | 1011.5 |
| 20260505011132 | 26 | 112 | 9.7 | 24.1 | 0.05 | 0.00 | 0.10 | 89 | 1011.3 |
| 20260505010130 | 26 | 112 | 1.6 | 4.8 | 0.05 | 0.00 | 0.10 | 89 | 1011.2 |
| 20260505005124 | 26 | 112 | 12.9 | 30.6 | 0.05 | 0.00 | 0.10 | 90 | 1011.0 |
| 20260505004121 | 26 | 112 | 0.0 | 0.0 | 0.05 | 0.00 | 0.10 | 90 | 1010.7 |
| 20260505003120 | 26 | 112 | 19.3 | 43.5 | 0.05 | 0.00 | 0.10 | 89 | 1010.7 |
| 20260505002120 | 26 | 112 | 1.6 | 4.8 | 0.05 | 0.00 | 0.10 | 89 | 1010.6 |
| 20260505001119 | 25 | 112 | 8.0 | 19.3 | 0.05 | 0.00 | 0.10 | 88 | 1010.5 |
| 20260505000119 | 25 | 225 | 4.8 | 12.9 | 0.05 | 0.00 | 0.10 | 89 | 1010.5 |
| 20260504235118 | 25 | 0 | 0.0 | 0.0 | 0.05 | 0.00 | 0.10 | 90 | 1010.4 |
| 20260504234116 | 25 | 0 | 1.6 | 4.8 | 0.05 | 0.00 | 0.10 | 88 | 1010.4 |
| 20260504233115 | 25 | 112 | 4.8 | 11.3 | 0.05 | 0.00 | 0.10 | 87 | 1010.4 |
| 20260504232113 | 25 | 22 | 3.2 | 8.0 | 0.05 | 0.00 | 0.10 | 88 | 1010.4 |
| 20260504231111 | 25 | 112 | 1.6 | 3.2 | 0.05 | 0.00 | 0.10 | 86 | 1010.2 |
| 20260504230108 | 25 | 112 | 0.0 | 0.0 | 0.05 | 0.00 | 0.10 | 86 | 1010.1 |
| 20260504225106 | 25 | 225 | 0.0 | 0.0 | 0.05 | 0.00 | 0.10 | 86 | 1010.1 |
| 20260504224100 | 25 | 0 | 0.0 | 0.0 | 0.05 | 0.00 | 0.10 | 86 | 1010.0 |
| 20260504223058 | 25 | 270 | 0.0 | 1.6 | 0.05 | 0.00 | 0.10 | 86 | 1009.9 |
| 20260504222056 | 25 | 0 | 0.0 | 0.0 | 0.05 | 0.00 | 0.10 | 86 | 1009.8 |
| 20260504221052 | 25 | 22 | 0.0 | 0.0 | 0.05 | 0.00 | 0.10 | 86 | 1009.8 |
| 20260504220048 | 25 | 22 | 0.0 | 0.0 | 0.05 | 0.00 | 0.10 | 86 | 1009.7 |
| 20260504215045 | 25 | 0 | 0.0 | 0.0 | 0.05 | 0.00 | 0.10 | 86 | 1009.8 |
| 20260504214043 | 25 | 0 | 0.0 | 0.0 | 0.05 | 0.00 | 0.10 | 86 | 1009.8 |
| 20260504213046 | 25 | 22 | 4.8 | 12.9 | 0.05 | 0.00 | 0.10 | 86 | 1009.7 |
| 20260504212040 | 25 | 90 | 3.2 | 6.4 | 0.05 | 0.00 | 0.10 | 87 | 1009.8 |
| 20260504211038 | 25 | 225 | 0.0 | 0.0 | 0.05 | 0.00 | 0.10 | 88 | 1009.5 |
| 20260504210038 | 25 | 112 | 4.8 | 11.3 | 0.05 | 0.00 | 0.10 | 89 | 1009.4 |
| 20260504205036 | 25 | 0 | 4.8 | 11.3 | 0.05 | 0.00 | 0.10 | 90 | 1009.5 |
| 20260504204035 | 25 | 112 | 22.5 | 49.9 | 0.05 | 0.00 | 0.10 | 88 | 1009.5 |
| 20260504203033 | 25 | 112 | 14.5 | 32.2 | 0.05 | 0.00 | 0.10 | 86 | 1009.5 |
| 20260504202031 | 25 | 0 | 0.0 | 0.0 | 0.05 | 0.00 | 0.10 | 86 | 1009.3 |
| 20260504201030 | 25 | 112 | 0.0 | 0.0 | 0.05 | 0.00 | 0.10 | 86 | 1009.3 |
| 20260504200028 | 25 | 112 | 12.9 | 29.0 | 0.05 | 0.00 | 0.10 | 86 | 1009.5 |
| 20260504195027 | 25 | 225 | 0.0 | 0.0 | 0.05 | 0.00 | 0.10 | 86 | 1009.6 |
| 20260504194028 | 26 | 22 | 1.6 | 6.4 | 0.05 | 0.00 | 0.10 | 86 | 1009.8 |
| 20260504193024 | 25 | 112 | 3.2 | 8.0 | 0.05 | 0.00 | 0.10 | 86 | 1009.7 |
| 20260504192021 | 25 | 202 | 0.0 | 0.0 | 0.05 | 0.00 | 0.10 | 85 | 1009.2 |
| 20260504191021 | 25 | 22 | 4.8 | 12.9 | 0.05 | 0.00 | 0.10 | 87 | 1009.8 |
| 20260504190019 | 25 | 225 | 0.0 | 0.0 | 0.05 | 0.00 | 0.10 | 85 | 1009.8 |
| 20260504185017 | 25 | 225 | 0.0 | 0.0 | 0.05 | 0.00 | 0.10 | 84 | 1009.9 |
| 20260504184015 | 25 | 0 | 3.2 | 8.0 | 0.05 | 0.00 | 0.10 | 84 | 1010.0 |
| 20260504183007 | 25 | 90 | 4.8 | 12.9 | 0.05 | 0.00 | 0.10 | 85 | 1009.9 |
| 20260504182005 | 25 | 90 | 16.1 | 37.0 | 0.05 | 0.00 | 0.10 | 85 | 1010.0 |
| 20260504181003 | 26 | 0 | 0.0 | 0.0 | 0.05 | 0.00 | 0.10 | 83 | 1010.4 |
| 20260504180002 | 25 | 22 | 0.0 | 0.0 | 0.05 | 0.00 | 0.10 | 84 | 1010.5 |
| 20260504175008 | 25 | 22 | 1.6 | 6.4 | 0.05 | 0.00 | 0.10 | 83 | 1010.9 |
| 20260504174001 | 25 | 0 | 0.0 | 0.0 | 0.05 | 0.00 | 0.05 | 83 | 1010.9 |
| 20260504173000 | 25 | 225 | 0.0 | 0.0 | 0.03 | 0.00 | 0.05 | 83 | 1011.1 |
| 20260504172000 | 26 | 22 | 4.8 | 12.9 | 0.03 | 0.00 | 0.05 | 83 | 1011.5 |
| 20260504170958 | 25 | 90 | 0.0 | 0.0 | 0.03 | 0.00 | 0.00 | 82 | 1011.6 |
| 20260504150934 | 30 | 22 | 0.0 | 0.0 | 0.00 | 0.00 | 0.00 | 85 | 1011.9 |
| 20260504140911 | 30 | 112 | 0.0 | 0.0 | 0.00 | 0.00 | 0.00 | 86 | 1010.6 |
| 20260504081014 | 35 | 67 | 0.0 | 0.0 | 0.00 | 0.00 | 0.00 | 74 | 1007.9 |